Location: *
(37.5724°S, 58.0067°E)
Time: 09:53:35
(UTC+00:00)

Cosmos 1726 - Pass Details

Date: 26 January 2021
Orbit: 480 x 499 km, 82.5° (Epoch: 27 February)

Event Time Altitude Azimuth Distance (km) Brightness Sun altitude
Rises 00:35:24 0° 206° (SSW) 2,591 5.8 -7.9°
Reaches altitude 10° 00:38:01 10° 225° (SW) 1,702 4.7 -7.4°
Maximum altitude 00:40:34 18° 268° (W) 1,285 3.7 -7.0°
Drops below altitude 10° 00:43:06 10° 312° (NW) 1,691 4.2 -6.5°
Enters shadow 00:44:02 - 321° (NW) 1,979 4.6 -6.4°
